Wind_Speed
22 22 22 22 22 22 22 22 22 21 21 21 21 20 20 20 21 21 21 21 19 17 17 17 16 16 16 17 16 15 15 16 15 19 22 16 12 15 14 14 20 23 23 24 24 26 25 23 23 22 22 21 14 12 15 11 6 6 3 2 3 3 3 4 4 3 2 3 5 12 16 9 5 8 11 10 9 15 12 7 12 8 4 13 17 27 37 36
22 22 22 22 22 22 22 22 22 22 22 22 21 21 21 21 21 21 22 22 21 19 17 16 16 16 16 17 17 15 16 16 18 22 16 8 8 11 17 17 19 26 28 27 28 29 28 27 26 25 24 19 11 11 13 11 8 6 2 2 4 4 4 4 4 3 2 4 8 11 16 11 8 14 16 9 9 14 9 8 13 12 13 16 21 33 38 37
22 22 22 22 22 22 22 22 22 22 22 22 22 22 21 21 21 21 22 23 23 21 18 16 16 16 16 16 16 16 16 17 20 21 11 9 13 10 16 21 22 28 29 27 26 28 28 27 28 27 23 15 10 12 11 10 9 8 5 3 6 5 5 9 10 9 6 5 10 10 15 10 10 18 16 9 9 11 8 11 14 18 23 24 30 38 38 39
23 23 22 22 22 22 22 22 22 22 22 22 22 21 21 21 21 21 22 23 24 22 19 16 16 16 16 15 15 15 15 16 14 10 3 5 13 14 17 23 26 29 29 26 25 27 26 26 29 28 22 10 9 11 9 11 9 6 7 5 4 3 5 11 12 12 10 3 9 11 12 8 13 18 16 15 10 5 11 20 22 25 30 32 37 39 40 40
23 23 23 22 22 22 22 22 22 22 22 22 21 21 21 20 20 21 22 23 23 21 18 17 16 15 15 14 13 12 11 8 2 1 3 3 6 14 19 24 27 29 29 28 28 29 28 28 29 27 18 7 9 9 8 17 11 5 9 9 8 4 3 8 7 8 10 5 6 9 9 8 14 15 17 20 11 8 19 27 27 30 33 35 42 42 42 42
23 23 23 22 22 22 22 22 22 22 22 22 20 20 19 20 21 21 22 22 21 21 19 18 17 15 14 13 13 11 6 2 3 3 1 2 4 12 22 25 27 29 30 30 31 31 29 31 29 22 12 5 10 9 6 18 15 5 8 11 14 12 9 9 6 7 11 6 7 9 9 11 14 10 18 24 17 13 18 26 27 29 31 35 44 45 44 44
24 23 23 23 23 23 23 22 22 22 21 21 19 19 19 20 21 21 22 20 19 21 21 20 17 15 13 12 12 10 11 11 4 7 9 5 2 9 23 27 27 31 31 31 34 33 32 32 28 20 12 4 9 10 5 15 17 9 6 9 13 14 16 17 12 13 14 10 9 10 10 13 14 11 16 25 24 14 9 20 27 27 31 36 43 46 46 46
25 24 24 24 24 24 23 23 22 22 21 20 19 19 20 21 21 21 20 18 20 23 23 19 15 14 12 11 10 10 14 13 8 10 10 10 6 6 23 31 28 33 33 33 35 35 35 33 28 20 11 4 7 11 8 9 12 12 11 9 8 11 15 17 16 16 16 15 16 11 9 15 21 15 15 25 25 15 9 19 27 28 33 38 43 45 45 44
26 25 25 24 24 24 24 24 23 22 22 20 19 19 20 22 22 20 18 19 22 23 20 13 11 12 11 11 9 9 11 10 8 7 5 10 10 6 20 33 31 34 34 32 34 36 36 33 32 23 11 9 8 10 13 7 5 13 16 10 9 13 15 16 17 17 15 15 16 11 8 15 22 14 11 21 22 16 15 22 28 31 35 39 42 44 46 44
27 27 26 25 25 24 25 25 23 23 22 20 20 21 21 22 22 21 20 21 23 21 13 7 11 14 12 11 6 3 8 8 6 4 2 4 6 4 16 32 33 35 36 33 34 37 35 32 34 24 10 12 10 7 14 10 5 9 12 12 15 18 20 20 20 20 16 14 14 11 10 15 19 12 6 14 21 20 21 26 30 33 37 40 41 43 44 44
28 29 28 26 26 25 25 25 24 23 22 21 21 22 21 22 22 22 22 23 22 15 7 8 14 16 15 12 7 6 8 8 6 3 0 2 1 1 9 29 35 35 37 36 35 36 33 29 32 23 5 9 10 5 12 12 10 10 10 11 15 15 18 19 17 20 14 9 15 16 13 12 12 11 8 15 25 26 27 31 33 35 38 40 41 41 41 41
30 30 29 28 27 27 26 26 25 23 23 23 22 22 22 22 22 24 24 23 18 10 9 13 15 19 20 16 15 9 7 10 10 8 6 6 5 2 5 25 35 35 37 38 36 34 31 27 30 25 6 6 9 2 7 14 15 15 10 8 10 7 13 17 15 16 9 5 13 13 8 6 8 11 12 20 28 28 30 33 34 36 38 39 40 40 40 40
31 31 31 30 28 28 27 26 26 25 24 24 23 23 23 24 24 25 24 20 14 9 11 14 18 24 19 15 15 8 7 13 14 12 12 12 9 4 7 22 35 35 36 37 35 34 30 26 30 28 11 8 8 3 2 7 12 12 7 5 7 5 9 12 11 12 9 8 11 11 3 5 9 11 14 24 30 29 29 32 34 35 36 37 39 39 39 39
32 32 32 31 30 29 28 27 26 26 25 25 24 24 24 25 25 24 22 15 11 11 14 18 23 23 14 14 12 9 10 11 10 9 10 11 9 6 8 21 36 36 35 34 30 31 27 22 28 26 12 9 6 1 3 2 3 4 3 3 2 1 6 5 3 7 7 8 14 15 3 6 7 9 19 27 32 33 29 30 32 34 35 37 38 38 39 40
33 32 32 31 30 29 28 28 27 26 26 25 25 24 25 26 23 22 16 10 11 16 19 21 19 14 12 14 9 6 5 1 1 2 4 4 3 8 9 20 35 36 34 30 23 27 25 18 23 20 11 10 5 3 3 3 2 0 2 3 1 4 7 6 3 8 7 5 14 15 3 6 6 9 24 30 33 34 30 30 32 33 35 37 38 38 38 39
33 33 32 31 30 29 29 28 27 27 25 25 25 24 25 23 21 18 9 9 17 19 17 14 13 10 9 9 8 8 6 3 5 4 3 5 3 9 8 15 31 35 30 24 13 17 24 17 17 17 9 6 4 1 2 3 4 2 3 4 2 5 6 6 3 7 10 4 8 11 4 4 4 11 26 31 34 33 28 29 32 34 36 37 38 38 38 38
33 33 33 31 29 28 28 28 27 26 24 25 25 24 23 20 18 10 3 13 22 15 10 10 14 11 4 8 12 14 16 13 12 8 6 5 4 9 11 14 26 32 26 20 9 8 22 18 9 10 7 3 3 4 2 4 5 3 3 4 3 5 4 3 4 4 6 4 4 8 7 6 4 12 25 30 33 30 26 28 32 34 35 37 38 37 38 39
33 34 33 32 30 28 27 27 26 24 24 25 25 24 19 16 15 4 1 21 23 10 7 10 15 7 2 15 18 19 25 19 14 9 6 5 6 12 16 14 20 29 21 14 9 9 18 15 5 3 3 4 4 5 7 6 5 4 4 3 2 4 5 4 4 3 2 1 4 6 8 9 4 9 21 29 32 29 26 29 32 34 35 36 37 37 39 40
34 34 34 32 31 27 25 25 23 22 24 24 25 22 15 16 13 1 7 26 16 5 5 8 12 2 7 21 22 22 27 17 12 10 5 3 7 16 17 15 18 26 17 7 8 11 14 8 4 5 6 10 11 10 10 3 4 7 5 4 4 4 6 6 5 4 1 1 5 6 9 10 5 8 15 23 31 28 24 25 28 30 32 34 36 37 39 41
35 35 34 33 31 26 23 22 19 21 23 22 25 19 15 20 11 1 19 26 10 8 11 11 12 7 12 23 22 25 23 9 7 8 3 1 10 19 18 17 17 18 13 7 6 11 13 6 5 11 12 13 12 10 8 3 1 3 3 3 4 5 6 6 3 3 2 2 5 7 9 11 8 9 13 21 26 21 18 20 24 27 30 33 35 37 39 42
34 35 34 33 31 25 21 18 17 20 19 18 22 18 15 20 9 6 24 21 13 19 16 12 12 10 16 22 19 24 19 6 4 3 3 3 12 18 17 16 13 8 8 8 7 9 11 7 12 16 11 7 7 7 7 6 7 4 2 2 4 5 6 6 3 2 1 2 5 5 7 11 9 9 11 18 18 17 21 23 24 28 31 33 36 38 40 39
34 34 33 33 30 24 19 15 15 18 16 15 19 20 17 18 13 11 14 12 18 23 11 10 10 9 20 21 16 21 14 5 4 3 4 6 11 14 15 13 8 6 7 9 7 6 7 10 18 14 7 5 5 7 9 9 9 7 4 3 5 3 3 7 4 1 1 2 4 4 6 10 9 8 11 16 17 22 31 32 32 35 34 34 37 39 38 36
33 34 33 32 29 23 17 12 15 17 15 16 20 21 18 18 17 13 9 8 16 16 6 8 9 9 21 20 16 20 10 4 4 6 5 4 11 14 14 9 7 7 8 10 8 8 7 11 14 8 7 8 7 7 9 9 8 8 6 5 6 3 2 5 4 2 0 3 4 3 5 7 6 4 8 18 23 25 31 34 35 38 39 39 40 40 38 37
32 33 32 32 27 21 15 10 15 17 16 18 21 22 20 19 19 14 8 5 7 9 2 6 10 11 21 20 16 19 9 5 7 9 13 4 7 11 12 10 9 7 8 11 11 10 7 7 7 10 8 10 10 9 9 8 6 8 8 8 7 6 6 4 4 5 4 3 1 3 1 6 4 4 6 13 17 17 20 24 24 29 35 33 32 35 37 39
32 32 32 32 25 20 13 9 16 19 15 18 21 22 21 21 21 13 6 1 3 6 0 6 9 11 22 19 16 18 8 6 10 12 16 9 5 4 8 12 10 6 8 12 9 9 9 7 10 14 11 11 11 11 9 8 5 6 10 11 10 8 6 3 3 5 5 5 2 3 1 6 4 6 7 7 9 12 13 15 21 28 29 27 29 34 37 39
31 32 31 29 22 17 11 8 16 19 15 17 20 22 20 21 19 8 1 3 3 4 1 7 7 10 21 17 20 19 4 7 14 12 18 14 8 5 4 7 8 7 7 9 5 5 6 6 10 12 14 13 11 10 9 10 6 6 8 10 10 7 5 3 2 1 2 4 4 1 3 5 5 5 7 6 10 15 14 13 21 27 27 29 33 34 36 38
30 31 30 25 18 16 12 9 15 18 16 18 21 21 19 20 15 4 1 3 3 2 3 8 5 10 19 15 20 14 2 12 15 13 23 16 4 6 6 3 4 6 6 7 3 4 7 8 9 10 12 12 10 10 9 11 9 7 6 8 8 7 7 6 3 3 4 3 6 2 3 3 5 6 5 7 10 13 13 14 18 22 28 33 34 34 37 41
30 30 28 20 13 13 12 10 14 16 17 20 21 20 18 17 7 3 2 1 3 3 2 7 6 12 19 15 20 14 2 12 10 12 24 13 0 4 6 3 4 4 6 9 6 3 8 11 11 10 10 9 10 11 10 12 10 5 6 9 8 8 7 6 5 4 2 2 7 5 6 3 6 7 3 6 10 12 13 16 15 18 28 34 35 37 39 41
30 30 26 16 11 12 10 11 15 15 18 20 21 21 17 10 1 4 4 1 1 4 3 9 8 14 21 13 17 17 9 10 8 12 21 13 3 3 6 2 2 4 3 8 8 4 6 12 15 11 8 8 8 10 10 12 10 4 6 5 5 7 6 5 5 4 2 4 10 7 7 5 6 6 4 3 9 11 12 13 13 19 29 34 36 38 39 40
29 29 24 15 12 12 10 11 14 15 20 20 20 20 10 1 4 4 2 2 1 4 4 9 9 13 18 9 9 16 10 10 14 16 19 19 16 10 4 5 6 2 4 3 6 6 4 11 17 12 8 7 6 7 9 13 11 5 5 2 1 1 3 4 3 3 2 8 12 9 9 7 5 6 6 5 6 8 9 10 13 18 26 32 35 37 37 39
28 28 23 15 12 13 13 14 14 16 20 19 20 16 2 4 4 3 1 1 2 3 4 7 7 10 13 6 6 12 8 8 15 15 14 15 20 21 12 7 9 5 2 3 4 5 5 7 8 7 12 11 6 5 7 11 11 6 5 4 0 3 0 1 1 3 6 10 7 8 9 10 8 6 6 8 7 8 10 12 13 16 23 32 36 38 39 42
27 27 20 13 10 11 14 16 17 18 19 21 21 11 4 2 2 2 2 3 1 2 3 3 5 6 7 5 6 9 6 6 11 9 7 7 9 13 11 5 6 2 3 3 3 3 5 6 3 3 15 15 8 5 5 6 8 6 4 5 4 2 1 4 2 3 8 7 3 5 7 7 9 7 9 12 10 10 11 14 16 19 25 34 38 40 42 43
26 26 18 10 9 10 11 14 17 18 19 22 18 6 5 3 0 1 3 3 1 2 2 3 4 5 5 6 6 8 5 5 10 8 4 4 5 6 8 9 8 2 2 2 2 2 2 5 5 4 8 13 12 8 5 4 6 7 6 6 6 5 4 6 4 3 6 5 3 3 5 4 4 5 13 16 14 13 15 20 25 27 31 36 39 41 42 41
25 25 17 8 7 10 10 13 17 17 19 21 12 3 5 3 1 1 2 1 1 3 2 2 4 5 6 5 4 6 4 3 8 9 5 3 3 3 5 10 13 7 1 1 2 1 2 3 6 4 1 5 10 10 7 6 6 8 7 6 6 5 5 5 3 4 5 4 5 2 4 5 3 4 13 16 17 19 20 25 30 31 33 34 35 35 36 37
25 22 14 7 8 10 11 13 15 16 19 17 7 5 4 1 2 1 0 3 1 2 4 3 3 4 5 4 4 6 4 3 6 6 5 5 4 4 4 7 11 8 2 1 2 1 2 4 3 4 9 6 5 8 9 8 5 7 6 6 7 6 5 2 4 5 3 3 4 3 4 4 3 5 7 9 14 17 19 23 26 28 29 28 27 31 35 38
24 19 11 8 11 12 13 14 13 16 18 11 6 4 1 2 1 1 1 2 1 1 3 4 4 3 3 3 3 7 6 4 6 4 3 5 4 4 3 4 8 8 5 2 1 2 2 5 7 12 12 4 4 6 7 11 6 3 6 8 7 5 5 3 5 2 2 4 5 3 4 4 2 6 4 3 9 12 14 16 19 25 26 24 27 33 37 40
25 17 9 12 18 17 16 15 12 15 13 5 5 2 2 1 2 1 1 4 2 1 3 2 3 2 2 3 3 6 6 4 5 4 2 2 3 5 3 4 9 8 5 3 1 1 2 6 8 8 7 5 14 15 8 10 9 5 5 8 4 4 4 5 5 2 3 7 5 2 6 4 3 6 3 3 7 11 13 13 15 20 20 21 27 34 38 41
27 15 7 18 25 21 15 12 11 10 6 3 4 2 1 2 3 3 4 4 2 2 4 2 0 1 2 1 2 5 4 3 4 3 3 3 2 4 3 2 7 10 10 6 0 1 1 4 6 2 3 9 15 10 5 7 9 7 5 7 7 3 5 6 5 5 5 5 4 3 4 4 5 5 3 7 10 12 13 13 13 15 14 19 27 33 37 40
26 13 6 22 26 18 12 7 6 1 3 4 2 1 1 1 4 8 8 5 0 3 3 1 0 1 1 1 1 3 2 2 3 2 2 3 1 4 6 3 4 10 14 8 1 2 2 1 4 3 4 9 8 1 3 5 7 4 3 7 6 3 5 6 4 3 4 4 4 3 3 4 6 6 7 10 12 13 13 12 12 14 17 23 28 31 35 37
23 10 8 24 23 11 7 1 5 6 5 2 1 1 1 1 4 11 14 8 1 2 2 1 1 1 1 1 1 2 2 1 2 2 1 2 1 3 7 6 4 8 13 9 1 1 2 2 3 6 8 6 3 1 1 0 1 2 2 4 5 2 2 4 3 3 4 4 3 4 4 5 5 5 10 13 13 13 14 14 13 15 22 29 30 32 35 37
20 7 11 27 22 9 4 5 7 6 3 1 1 1 4 3 3 10 16 12 5 3 3 2 2 2 1 2 2 1 2 1 2 2 1 2 1 1 5 7 6 7 7 6 3 3 2 1 1 5 6 4 6 6 3 3 3 2 3 2 4 4 3 4 5 4 4 5 4 3 5 6 5 4 8 11 12 12 14 15 13 17 27 33 34 35 36 38
16 4 12 25 21 10 5 5 5 4 3 2 3 2 5 5 4 7 12 12 7 5 5 3 2 2 2 1 1 1 1 1 1 1 0 0 1 1 4 9 10 9 4 2 3 5 4 0 1 5 4 6 15 16 10 8 6 4 3 2 2 2 3 4 6 4 4 4 3 3 6 7 5 6 8 9 9 10 14 15 13 19 29 34 35 36 37 39
14 6 13 22 20 12 6 5 5 4 2 5 5 3 5 5 4 5 8 9 6 4 5 4 2 3 3 1 1 1 1 1 1 1 1 2 1 0 3 9 11 8 4 2 3 7 6 0 1 5 4 7 13 10 4 3 1 1 2 4 4 4 2 3 5 4 4 4 4 4 8 7 4 5 6 6 5 6 11 15 15 18 25 31 35 36 36 39
13 8 12 20 19 11 5 3 3 2 4 6 4 6 8 6 6 6 4 5 6 3 1 3 3 3 2 2 1 1 1 1 2 2 1 1 2 1 2 7 9 6 4 4 4 6 5 1 2 3 3 4 6 2 1 4 5 3 4 4 4 6 8 8 4 1 3 7 8 7 9 6 3 4 4 3 4 5 7 12 16 17 20 27 33 36 37 40
11 5 8 18 19 14 9 5 2 1 3 5 3 5 7 5 7 9 5 4 7 4 0 2 4 3 2 2 2 2 1 2 1 1 0 0 2 2 2 5 7 5 5 8 10 7 2 1 2 3 2 2 4 2 0 4 6 5 6 8 9 8 9 7 3 1 5 6 7 8 8 4 3 4 4 2 3 5 7 7 11 16 20 23 28 33 36 38
7 3 6 12 16 18 14 10 8 4 1 4 3 2 5 4 5 9 7 4 8 9 3 2 4 3 3 4 3 2 2 1 1 1 1 1 2 3 3 4 5 5 5 9 12 7 1 1 1 4 4 4 4 3 3 5 6 8 12 15 13 9 6 3 1 3 3 2 5 8 6 5 7 7 6 6 6 7 8 6 8 16 22 24 27 32 35 38
5 2 3 6 7 10 9 11 13 6 2 3 2 1 5 4 4 7 6 4 9 11 3 2 4 4 3 4 3 2 2 2 2 1 1 2 2 2 2 1 2 3 4 8 10 5 1 2 2 6 6 6 7 7 8 8 8 11 15 17 16 12 7 5 6 6 2 1 7 6 4 9 12 9 8 9 9 9 9 9 12 19 24 27 30 32 34 38
4 2 3 4 3 3 3 7 11 8 6 4 1 0 4 4 3 5 4 4 8 9 4 2 5 5 3 3 2 2 3 3 2 1 1 2 2 3 2 2 2 1 3 5 8 3 1 3 3 5 6 7 7 7 9 9 10 11 13 15 17 15 11 9 10 10 7 6 7 3 5 12 14 9 9 9 9 9 12 15 17 19 22 26 29 31 33 37
5 3 3 5 3 2 3 7 10 8 6 5 2 2 3 4 5 4 3 3 5 6 5 2 4 7 6 2 0 1 1 2 2 2 1 2 2 2 2 3 2 1 2 2 4 2 1 3 4 5 6 6 6 7 9 9 9 10 12 15 15 15 15 14 13 14 13 11 10 10 11 15 12 6 5 7 8 11 15 18 19 20 21 23 25 30 34 37
5 3 3 5 3 4 5 6 6 5 5 4 2 3 3 3 4 5 4 2 2 3 4 3 6 8 6 4 1 3 4 3 4 4 3 2 2 1 2 2 1 1 1 0 2 2 1 3 4 2 4 5 5 6 7 7 8 12 14 14 12 11 12 11 10 11 10 9 11 14 15 13 6 4 8 11 12 10 10 12 16 19 23 22 22 27 33 35
4 3 3 2 2 4 3 4 4 2 2 3 2 3 3 2 4 6 5 3 3 3 2 4 7 7 6 6 3 5 6 6 7 9 9 8 7 6 5 3 2 2 2 2 1 1 1 3 4 3 2 4 2 2 5 8 10 11 11 10 7 6 8 7 5 4 4 5 8 10 10 8 5 9 12 11 10 7 5 8 13 18 20 19 22 25 30 35
3 3 2 1 2 3 3 4 3 1 1 2 3 4 3 3 6 6 4 3 3 4 5 6 7 5 4 5 5 7 12 14 15 17 18 18 17 15 13 12 10 7 3 3 2 2 1 2 4 2 2 4 1 2 7 9 7 6 6 2 3 4 7 8 5 6 6 3 4 6 6 5 8 10 10 10 9 6 5 9 12 16 17 17 22 26 31 37
Wind_Direction
7 5 3 1 359 357 355 353 351 350 348 347 346 346 344 341 337 335 334 333 334 333 328 322 318 313 303 295 287 282 284 283 278 268 260 263 262 240 227 204 198 198 187 180 185 181 170 171 175 174 175 174 184 194 193 206 196 187 211 222 238 236 222 210 195 206 190 153 148 164 169 158 141 155 148 138 136 143 144 139 157 168 177 172 170 164 163 164
6 4 2 359 358 356 355 352 350 349 347 346 345 344 342 339 337 334 332 331 331 334 333 325 319 313 304 297 291 290 288 290 284 270 266 271 259 227 215 200 192 198 190 182 186 186 178 172 171 171 170 171 181 189 194 202 194 197 209 215 229 221 219 237 239 262 291 157 148 166 177 172 161 159 154 143 141 147 131 123 141 128 132 155 161 162 162 164
5 3 1 359 357 356 355 351 349 349 348 347 344 343 340 338 336 333 331 329 329 334 336 328 319 313 305 297 293 295 295 299 291 276 278 258 234 204 199 197 194 198 196 193 190 193 192 178 170 168 165 167 179 183 195 196 192 212 222 233 238 236 257 278 264 264 297 155 145 164 180 180 168 165 161 148 152 164 156 148 145 132 139 152 158 161 163 165
3 2 360 358 357 356 354 351 349 349 349 347 345 343 338 336 333 330 329 327 329 334 339 330 320 315 305 298 295 296 306 309 297 277 269 238 224 206 192 193 199 198 196 199 194 195 195 179 169 166 162 164 184 184 201 199 183 194 210 222 237 230 243 271 269 263 283 199 159 163 169 183 175 171 165 148 146 196 193 179 173 160 155 157 160 163 166 167
2 0 359 357 356 355 353 351 349 349 349 348 345 341 337 334 331 329 328 328 332 336 339 331 324 320 306 300 294 294 318 322 312 114 121 127 192 203 193 192 200 195 192 195 190 189 188 174 164 162 162 159 177 190 220 208 194 198 227 237 247 264 249 273 293 284 283 251 179 157 161 182 172 176 172 161 165 211 204 195 185 174 167 164 166 166 167 170
0 359 357 356 354 353 352 350 349 350 350 348 345 341 337 332 330 330 330 333 335 335 335 330 326 323 311 302 293 290 293 239 111 56 240 135 148 190 193 195 196 190 190 191 185 183 178 167 160 161 167 160 178 192 213 205 209 237 248 246 244 250 258 269 295 305 294 256 191 176 184 175 163 189 185 180 196 206 206 199 187 180 176 170 169 169 170 173
358 357 356 355 353 351 350 349 349 349 349 347 343 340 336 333 334 332 332 336 333 331 330 327 325 321 318 305 290 287 264 244 280 300 260 223 170 181 190 194 192 188 189 188 183 180 173 166 163 164 164 165 192 199 191 196 211 240 259 252 248 247 252 262 277 292 291 270 242 211 186 173 179 198 188 198 210 207 208 194 185 179 174 171 170 173 174 176
358 357 356 354 351 349 348 347 348 348 349 346 341 340 338 336 338 335 332 330 327 328 328 326 325 319 320 309 292 290 272 261 291 293 258 224 220 189 188 190 189 188 190 191 187 182 176 170 168 165 165 190 188 196 200 188 206 232 245 252 264 261 261 273 282 284 278 270 264 236 190 192 198 192 186 207 212 204 196 181 179 176 172 173 174 175 176 177
358 357 356 354 351 348 346 345 346 348 347 344 341 341 340 338 340 338 331 323 323 327 329 332 341 336 326 310 299 292 275 260 275 283 256 224 225 218 195 193 190 188 190 193 190 185 179 173 175 172 173 192 176 188 201 198 204 220 235 257 282 277 280 288 285 280 274 266 258 232 216 216 205 195 200 210 202 193 186 174 175 174 173 175 176 177 178 179
359 357 356 354 352 348 344 343 345 347 344 342 342 341 341 339 339 337 331 325 324 326 329 347 358 353 337 313 300 270 270 250 247 248 181 200 214 220 204 201 196 190 191 191 189 188 186 185 183 174 168 191 192 196 193 202 232 229 249 268 271 274 279 280 278 275 271 268 254 221 227 231 208 201 224 199 187 183 174 169 174 175 176 178 178 179 180 182
359 359 356 354 352 349 345 341 343 346 342 341 342 341 340 339 338 334 332 329 327 326 313 330 343 345 339 315 260 229 261 227 203 235 114 43 318 300 209 205 201 193 191 190 189 192 194 195 184 170 159 194 194 205 201 214 245 267 289 283 270 275 279 273 269 271 267 262 248 222 224 231 203 210 223 180 179 183 172 167 174 176 178 179 179 181 183 185
360 359 358 356 352 349 346 341 342 346 342 340 342 342 338 339 338 333 334 331 327 322 297 314 328 332 334 302 261 254 275 239 233 269 287 332 320 296 211 209 206 198 194 192 192 194 196 198 185 175 171 168 170 182 229 230 242 265 282 285 284 299 287 271 262 263 250 240 237 215 227 231 196 220 214 178 175 178 172 168 173 176 178 180 180 182 185 188
358 358 359 357 353 349 346 341 342 344 341 340 340 342 339 338 339 334 335 332 323 315 298 307 317 323 322 285 276 287 276 255 254 271 279 294 290 233 201 206 203 198 197 196 194 194 195 199 191 186 178 149 160 150 252 237 233 251 254 251 285 322 292 269 253 242 223 241 219 176 217 241 213 219 192 175 171 168 166 169 173 175 178 180 181 184 187 190
357 357 356 357 355 350 346 342 344 344 341 339 341 343 339 338 340 335 333 329 324 318 306 309 314 319 305 277 299 302 273 261 254 281 292 288 272 223 196 199 197 193 195 198 197 195 193 198 196 192 193 183 186 247 355 345 216 232 213 213 247 269 277 262 203 202 209 250 194 165 230 241 222 206 176 174 173 168 166 170 174 175 178 180 183 186 189 192
355 354 354 356 354 350 346 344 344 343 340 338 343 344 339 340 338 332 332 333 330 321 315 315 317 323 299 291 330 343 299 279 184 320 343 349 271 218 196 194 195 190 192 198 203 201 192 187 194 197 211 213 228 324 348 353 336 323 179 232 197 180 263 274 189 187 202 249 182 168 246 242 228 191 175 176 176 173 170 172 176 177 179 182 184 187 191 195
354 352 353 354 351 349 346 345 345 343 340 339 344 344 340 340 334 330 339 345 337 329 328 329 330 328 298 306 1 8 347 322 321 317 306 360 323 223 200 189 193 191 192 194 198 203 192 184 196 204 218 218 206 159 39 348 317 320 198 233 202 178 252 281 274 217 202 216 181 180 224 246 234 181 175 179 178 176 172 174 178 179 181 183 185 189 191 195
353 350 350 351 351 349 346 347 347 342 341 341 344 345 342 339 332 333 357 346 346 348 353 349 336 317 287 1 355 340 337 311 297 290 269 303 271 215 195 181 190 194 193 187 179 187 190 191 200 208 218 218 164 134 154 247 242 265 212 219 227 194 224 262 299 274 192 188 209 205 221 235 220 173 175 181 181 178 176 177 180 181 183 185 186 189 192 195
352 349 348 350 351 348 345 348 347 345 344 343 347 348 341 338 336 328 339 346 352 6 7 354 349 334 283 352 343 333 334 312 283 274 277 284 215 193 191 185 184 189 186 183 188 175 184 193 196 200 222 211 189 166 192 213 196 195 191 189 237 229 231 233 257 284 100 117 237 223 232 235 216 171 180 184 183 182 183 182 182 183 185 186 188 191 193 196
352 348 347 349 352 349 346 349 351 350 347 347 351 348 339 347 350 190 332 345 356 24 351 337 351 355 274 323 331 335 331 309 281 273 278 296 187 175 188 193 178 176 168 166 200 181 173 175 176 200 215 204 204 201 199 189 131 162 173 174 196 224 245 240 240 258 58 74 243 232 237 237 206 183 189 186 186 188 187 183 184 186 187 187 190 193 195 198
352 348 346 348 351 351 349 353 358 356 354 354 354 352 357 2 7 253 332 341 354 341 320 313 321 283 295 322 333 343 338 308 272 256 238 53 163 164 178 180 164 163 163 163 183 180 174 168 199 211 214 205 206 205 200 241 261 163 161 187 206 222 251 251 243 262 146 153 245 232 235 244 216 194 195 188 187 188 185 184 187 189 190 191 193 196 198 200
351 348 346 347 350 353 352 356 4 2 5 7 5 20 29 14 14 313 330 334 331 330 322 327 318 284 322 337 341 347 344 316 282 214 177 164 158 162 172 165 152 159 178 160 137 165 174 191 221 217 209 196 199 193 189 230 259 264 228 236 257 233 249 267 250 255 157 164 272 256 244 254 229 201 196 185 183 193 190 186 190 192 193 195 196 199 200 201
351 347 345 346 349 355 355 358 7 7 14 21 24 37 33 16 6 328 324 309 316 330 331 340 324 299 339 347 348 350 342 310 337 82 132 179 170 175 177 165 165 175 168 151 130 160 184 221 227 213 175 168 191 183 182 207 231 249 248 249 267 240 259 281 265 244 164 182 272 264 241 258 242 201 191 186 188 200 197 191 191 192 194 197 199 201 200 198
350 346 344 345 349 356 358 4 11 12 20 25 27 26 14 7 359 334 319 282 305 328 339 354 341 329 348 353 350 350 344 310 337 29 33 190 185 190 189 176 172 167 166 174 174 174 193 232 225 185 142 179 200 186 181 195 215 227 227 231 245 226 208 260 285 348 77 205 239 233 235 270 267 192 190 200 201 203 202 199 197 195 196 198 200 201 198 196
349 345 342 344 349 357 2 13 15 15 22 22 20 12 1 357 350 332 319 272 288 321 335 12 358 350 353 352 346 345 336 299 313 354 2 331 198 192 195 187 174 175 182 187 193 194 223 257 183 149 164 188 196 197 185 188 212 222 219 223 230 228 220 233 313 341 347 306 234 122 317 299 270 207 211 209 209 214 210 204 204 206 205 203 201 202 200 199
348 344 340 343 349 358 6 17 14 14 15 13 8 360 354 348 340 326 319 302 288 306 52 20 4 4 357 352 346 339 314 299 325 343 353 336 268 226 197 189 185 199 187 181 198 212 242 255 155 158 187 191 195 204 193 187 206 228 222 221 219 223 234 233 5 360 356 318 279 119 211 291 282 232 225 196 198 218 209 200 209 212 208 204 204 204 203 203
348 343 340 343 348 357 10 15 7 7 4 1 356 350 348 342 333 311 319 53 323 291 33 4 357 3 357 352 344 341 301 321 338 345 350 340 297 264 218 197 190 203 177 167 204 216 229 222 166 172 188 186 200 209 196 183 197 236 215 206 210 209 222 207 84 29 269 263 270 114 164 266 307 267 231 185 193 211 201 200 211 210 204 204 207 205 203 203
348 342 339 343 348 355 8 9 360 1 357 349 345 346 344 337 328 274 189 31 341 336 24 355 358 354 352 356 353 359 168 327 340 1 359 351 285 209 205 237 194 192 158 152 219 202 183 191 182 188 186 183 202 209 193 176 195 237 178 161 187 193 214 215 163 199 235 265 279 268 151 235 287 266 228 176 201 218 205 210 214 205 204 207 209 207 205 205
349 341 339 345 349 351 359 356 352 357 352 341 338 342 341 335 321 172 94 19 326 36 29 344 356 346 348 11 16 24 49 340 345 357 3 11 133 181 189 233 203 190 162 175 217 197 177 190 185 185 190 194 202 203 186 174 202 226 144 148 172 182 208 210 181 210 229 298 274 243 159 206 270 272 266 162 203 226 212 215 217 205 207 208 209 209 207 207
348 342 339 341 340 339 343 344 346 350 345 337 335 339 339 334 225 121 65 188 344 42 10 347 358 345 348 14 25 17 9 3 350 338 5 29 35 177 183 219 212 231 226 196 213 218 194 191 182 182 199 202 203 202 177 179 212 197 135 150 155 168 193 186 184 198 179 237 253 231 167 200 266 273 277 178 208 224 211 216 219 212 212 211 210 210 209 208
348 343 338 333 334 335 329 330 338 342 342 338 335 338 343 73 117 86 36 201 45 24 353 358 354 341 351 10 15 5 1 357 348 349 14 30 34 49 89 52 40 307 275 241 220 228 236 191 184 190 203 190 186 199 179 185 203 156 129 158 86 146 166 159 161 137 193 246 246 226 177 184 250 260 240 218 210 203 194 212 219 215 215 214 214 213 209 209
347 343 337 333 340 344 340 335 335 338 343 343 338 342 23 127 78 105 198 247 44 7 358 2 347 344 0 18 9 357 350 345 350 1 19 25 33 33 30 33 18 359 273 283 257 239 255 208 190 198 198 183 159 198 198 193 198 172 147 159 183 319 77 163 63 116 223 244 235 214 177 184 230 249 238 238 227 197 190 208 213 211 213 213 214 214 211 211
346 341 334 329 335 347 351 345 336 336 344 346 341 347 116 121 19 159 271 334 16 358 355 332 331 345 353 10 19 353 337 347 352 3 21 26 45 41 39 35 353 341 207 282 295 253 245 222 226 207 198 190 168 190 203 194 198 187 157 147 178 245 190 211 213 172 229 246 229 189 160 194 227 226 236 244 237 212 201 211 212 209 211 211 212 212 212 211
345 338 329 318 321 334 345 341 334 333 343 347 339 351 99 89 77 206 321 351 7 342 342 299 318 344 356 15 14 344 333 356 355 354 3 32 70 73 61 36 17 37 206 318 349 294 260 214 219 202 199 195 182 185 194 186 189 187 178 166 179 193 196 215 223 234 248 261 257 176 148 225 234 206 227 234 238 226 209 215 219 217 214 212 211 211 211 211
346 339 327 309 317 324 327 333 334 334 341 348 348 53 76 79 172 40 359 299 296 341 336 308 326 346 15 25 348 340 345 336 354 0 350 12 48 53 43 24 19 22 329 29 30 282 197 226 217 184 249 220 192 192 179 155 175 191 183 172 182 187 190 199 190 216 240 252 256 194 166 208 186 203 219 216 230 230 218 220 225 226 222 215 212 209 209 210
349 344 333 308 309 311 307 318 332 337 339 347 17 78 76 137 233 23 350 262 276 351 323 332 27 22 13 1 328 351 7 326 345 11 30 39 38 23 26 14 10 14 19 38 7 1 228 263 272 322 321 303 222 208 167 143 185 199 167 175 204 188 165 190 201 192 194 238 244 212 207 216 203 255 245 214 226 226 221 223 225 229 226 212 205 203 206 209
353 351 348 320 313 306 294 298 320 338 338 352 55 69 110 157 276 212 145 305 250 45 336 347 38 52 356 338 334 348 2 5 351 6 53 53 41 26 32 22 9 13 34 62 302 2 341 276 304 329 318 319 355 304 192 168 183 179 171 194 200 155 148 215 246 197 133 232 244 212 241 272 253 267 287 229 228 223 221 224 223 230 223 201 199 203 204 207
355 353 352 339 334 321 297 283 301 330 337 14 82 83 198 126 4 325 359 334 285 117 67 33 19 55 11 349 344 342 353 7 353 359 27 32 37 21 10 26 16 6 4 16 256 346 356 283 296 315 290 317 352 332 262 190 165 148 189 193 152 102 155 201 240 256 213 239 268 242 237 248 214 249 273 161 211 225 224 222 223 231 219 198 202 206 205 207
353 344 341 346 342 333 312 277 277 314 340 58 75 82 148 64 12 8 351 324 288 82 79 101 4 68 69 19 329 331 351 12 352 360 3 357 35 31 17 8 7 354 337 340 336 257 353 296 294 284 255 317 339 336 276 220 191 179 177 166 150 158 187 187 215 225 214 238 280 282 250 228 204 228 218 180 203 218 222 223 226 230 218 205 208 209 208 208
352 345 348 350 345 340 330 281 242 317 66 73 60 96 101 50 7 13 7 339 218 93 70 152 193 24 85 107 298 319 352 39 359 2 15 5 1 33 36 12 341 344 332 331 76 286 345 34 287 322 359 326 320 281 210 239 229 216 161 158 168 190 191 188 193 194 202 229 261 284 288 246 226 207 185 195 207 207 209 217 222 226 223 216 212 210 210 208
357 350 347 352 353 350 345 69 122 82 84 87 111 190 337 48 4 10 19 16 57 94 65 179 145 43 11 20 346 335 5 59 25 14 25 24 13 41 41 23 338 336 325 319 353 328 358 72 272 312 347 333 284 194 144 247 271 247 208 178 182 194 194 208 209 178 185 198 219 265 270 255 249 204 184 197 208 204 200 204 212 220 223 222 219 213 210 208
5 350 338 353 1 7 19 88 76 48 83 72 43 336 339 16 12 5 21 34 46 43 47 135 122 76 58 3 355 354 1 33 41 38 19 28 55 53 29 17 341 327 324 320 350 355 351 75 277 305 334 321 272 280 312 347 333 262 254 238 205 193 153 190 230 222 205 205 190 222 258 260 251 212 195 200 204 203 199 196 205 214 218 221 222 217 212 210
11 359 341 353 1 10 41 85 30 16 102 26 348 296 316 350 12 0 15 30 38 25 25 56 67 53 68 358 325 17 52 69 47 61 147 187 159 230 10 10 346 327 341 354 329 330 322 134 292 287 276 264 270 276 282 282 270 238 246 301 299 259 145 181 232 222 209 225 173 187 263 268 240 209 206 211 212 211 205 197 198 209 214 218 221 219 215 214
2 350 354 359 0 8 50 77 7 8 58 348 336 323 329 358 28 11 14 24 23 6 14 33 39 41 50 25 349 26 57 105 186 168 189 243 241 310 5 10 354 337 354 5 320 331 329 340 352 301 284 274 272 270 278 295 285 167 292 356 351 314 314 279 256 201 197 220 179 214 258 260 245 227 222 238 259 238 213 204 203 208 211 214 218 220 217 216
350 340 5 10 6 11 58 75 359 1 1 347 351 6 9 33 39 16 17 24 11 353 14 29 24 33 24 350 5 4 18 79 194 203 189 236 222 157 44 18 3 353 4 351 346 350 332 205 74 359 352 318 285 268 14 2 23 20 314 325 317 318 335 321 289 176 230 216 181 204 243 241 261 275 255 272 295 278 235 216 214 216 213 212 215 218 218 218
352 337 7 16 24 44 71 77 44 20 356 352 350 4 10 18 17 12 16 28 13 356 309 28 22 32 15 359 13 352 9 69 205 234 69 309 241 203 129 43 14 357 360 351 355 3 324 205 91 93 126 206 231 206 274 322 335 321 302 306 309 326 335 324 321 278 253 219 186 210 233 241 294 287 261 238 243 262 268 248 230 229 227 222 219 219 219 219
9 2 347 4 32 54 64 57 41 39 19 5 352 2 14 353 341 358 12 33 9 353 338 27 20 26 19 17 22 343 320 23 337 327 139 257 276 228 170 76 21 346 355 355 357 2 290 249 167 177 187 215 238 261 271 278 295 298 301 304 303 304 302 294 282 253 240 195 219 232 237 264 273 264 259 251 232 244 259 255 235 231 233 233 228 224 222 220
32 41 356 348 12 34 37 30 26 20 336 349 309 289 12 4 326 350 11 23 356 348 343 70 39 40 17 6 10 298 306 342 325 319 240 255 286 273 203 122 346 334 10 360 353 358 277 285 238 211 221 234 249 273 279 281 286 285 291 294 292 291 286 249 234 250 280 254 243 238 229 257 256 237 232 244 241 245 250 237 230 233 235 237 236 231 224 220
47 68 52 26 355 3 15 359 355 347 327 329 268 238 11 19 9 360 359 349 350 355 6 37 26 26 9 358 350 276 320 349 318 303 340 297 311 333 318 252 252 30 51 2 346 356 250 268 243 232 248 245 243 263 276 281 279 272 270 275 279 284 281 260 246 250 251 250 265 268 217 243 257 250 237 238 230 234 247 248 248 247 244 242 239 231 223 218
68 96 48 26 359 280 291 310 321 332 329 315 327 25 12 22 21 356 326 329 343 357 13 5 341 344 339 335 310 249 288 332 298 295 304 285 296 324 301 278 267 92 86 10 339 342 260 272 252 245 263 259 249 263 274 276 277 274 268 266 271 276 275 267 256 247 239 246 276 286 260 252 258 265 269 265 254 249 254 261 264 260 253 247 237 226 219 214
60 62 9 9 339 287 293 306 317 336 339 327 352 13 360 24 19 340 313 305 289 327 10 353 320 324 321 314 272 226 237 242 254 256 239 259 288 236 233 254 238 205 161 101 350 355 306 286 289 289 286 276 261 260 262 264 275 279 276 271 271 279 285 278 259 248 240 239 253 260 264 265 272 359 334 302 299 293 275 279 285 277 266 252 230 216 211 206
44 1 348 13 337 316 319 323 325 341 349 345 359 351 345 12 358 328 305 268 242 253 298 314 316 317 314 315 290 255 275 275 256 255 252 254 255 240 238 241 195 200 203 176 201 26 58 300 317 357 310 276 263 259 282 291 288 273 264 271 283 302 320 314 289 277 267 243 237 240 250 266 311 344 330 313 328 345 333 326 322 310 291 256 223 208 202 198
18 335 340 60 348 333 330 321 334 49 15 335 352 344 319 318 333 333 321 301 286 280 280 294 305 305 304 303 288 294 308 302 287 280 276 268 261 252 248 245 238 233 213 156 171 203 173 288 309 315 274 271 285 337 317 312 301 258 219 218 327 335 337 328 330 0 350 285 237 236 247 292 320 324 322 319 330 353 12 355 342 332 314 265 225 209 201 198
Height
1519 1518 1516 1515 1513 1511 1510 1508 1507 1505 1504 1502 1501 1499 1498 1496 1494 1493 1491 1490 1490 1488 1487 1486 1485 1483 1481 1480 1480 1480 1479 1478 1477 1477 1474 1471 1473 1477 1478 1479 1481 1482 1483 1485 1487 1489 1491 1494 1497 1499 1501 1504 1506 1506 1507 1507 1507 1509 1510 1515 1516 1514 1510 1500 1496 1496 1493 1494 1494 1494 1494 1496 1499 1500 1501 1502 1504 1505 1507 1508 1509 1510 1510 1511 1513 1515 1517 1520
1519 1518 1516 1514 1513 1511 1509 1507 1506 1504 1503 1501 1500 1498 1497 1495 1494 1492 1490 1489 1488 1487 1486 1485 1484 1482 1481 1479 1478 1478 1477 1476 1475 1472 1470 1470 1472 1473 1474 1478 1479 1480 1481 1482 1484 1486 1488 1491 1494 1497 1500 1503 1505 1506 1507 1506 1507 1508 1508 1514 1513 1506 1499 1493 1492 1491 1490 1492 1492 1493 1494 1496 1498 1498 1499 1502 1505 1505 1507 1509 1509 1510 1511 1513 1514 1516 1519 1521
1519 1518 1516 1514 1512 1511 1509 1507 1505 1504 1502 1501 1499 1497 1496 1494 1493 1491 1489 1487 1486 1486 1485 1484 1482 1481 1480 1478 1477 1476 1476 1475 1472 1468 1468 1469 1469 1470 1472 1475 1476 1477 1479 1481 1483 1484 1486 1489 1493 1496 1500 1503 1504 1505 1506 1505 1506 1506 1508 1512 1506 1497 1493 1490 1490 1490 1490 1490 1491 1493 1494 1496 1497 1497 1499 1501 1504 1505 1506 1507 1507 1509 1511 1513 1515 1516 1519 1521
1519 1517 1515 1514 1512 1510 1508 1506 1505 1503 1502 1500 1498 1497 1495 1493 1492 1490 1488 1486 1485 1484 1484 1483 1481 1480 1479 1477 1477 1476 1475 1473 1468 1465 1466 1466 1467 1469 1471 1473 1474 1476 1479 1482 1483 1485 1487 1489 1492 1495 1499 1503 1504 1505 1505 1504 1504 1504 1504 1505 1497 1493 1493 1489 1488 1489 1490 1490 1491 1492 1494 1496 1497 1498 1498 1499 1505 1507 1503 1501 1501 1504 1507 1510 1514 1516 1518 1520
1519 1517 1515 1513 1511 1509 1508 1506 1504 1502 1501 1499 1497 1496 1494 1492 1491 1489 1487 1486 1484 1483 1483 1481 1480 1479 1477 1477 1476 1475 1476 1473 1466 1465 1466 1466 1467 1468 1469 1471 1472 1475 1478 1481 1483 1485 1487 1488 1491 1495 1498 1500 1503 1504 1503 1501 1502 1502 1498 1495 1493 1493 1493 1489 1488 1490 1490 1490 1491 1492 1494 1495 1496 1497 1497 1497 1501 1501 1496 1497 1499 1500 1503 1506 1510 1513 1516 1519
1519 1517 1515 1513 1510 1509 1507 1505 1503 1501 1500 1498 1497 1495 1493 1491 1490 1488 1486 1485 1483 1482 1481 1480 1479 1478 1477 1476 1475 1475 1476 1471 1465 1466 1466 1466 1466 1467 1468 1469 1471 1474 1477 1479 1482 1484 1486 1488 1490 1494 1496 1498 1501 1501 1500 1499 1501 1502 1496 1491 1492 1493 1492 1489 1490 1490 1490 1491 1491 1492 1492 1493 1495 1496 1496 1494 1494 1493 1493 1496 1500 1502 1503 1505 1507 1511 1514 1517
1518 1516 1514 1512 1510 1508 1506 1504 1502 1501 1499 1497 1496 1494 1492 1490 1489 1487 1485 1484 1483 1481 1480 1479 1478 1477 1476 1476 1474 1474 1474 1468 1465 1465 1465 1466 1466 1467 1468 1468 1471 1473 1476 1478 1480 1482 1484 1487 1489 1491 1495 1497 1498 1498 1498 1499 1500 1501 1496 1490 1491 1492 1491 1489 1491 1491 1492 1492 1491 1491 1491 1492 1494 1494 1494 1492 1490 1492 1495 1497 1501 1504 1506 1507 1508 1510 1512 1514
1518 1516 1514 1512 1509 1507 1505 1503 1501 1500 1498 1496 1494 1493 1491 1489 1488 1486 1485 1483 1482 1480 1479 1478 1477 1476 1476 1475 1474 1473 1471 1466 1464 1464 1464 1465 1466 1467 1467 1467 1469 1472 1474 1475 1476 1479 1481 1484 1487 1490 1494 1495 1496 1496 1497 1499 1500 1499 1493 1489 1490 1491 1490 1490 1492 1491 1491 1491 1490 1491 1491 1490 1490 1491 1491 1489 1490 1494 1495 1497 1501 1504 1507 1508 1508 1510 1513 1515
1517 1515 1513 1511 1509 1506 1504 1502 1500 1499 1497 1495 1493 1492 1490 1488 1487 1485 1484 1482 1480 1479 1477 1476 1476 1475 1475 1474 1474 1473 1468 1464 1464 1463 1463 1464 1465 1466 1466 1466 1468 1471 1473 1475 1477 1478 1479 1482 1485 1487 1491 1493 1494 1495 1496 1499 1499 1493 1489 1490 1491 1490 1489 1490 1490 1489 1490 1489 1488 1490 1489 1488 1488 1492 1491 1488 1491 1494 1495 1498 1500 1503 1506 1508 1509 1511 1513 1515
1517 1515 1513 1510 1508 1506 1503 1501 1500 1498 1496 1494 1492 1491 1489 1487 1485 1484 1482 1481 1479 1478 1476 1475 1474 1474 1474 1473 1474 1472 1465 1462 1463 1463 1463 1463 1464 1465 1465 1465 1467 1469 1472 1474 1476 1477 1477 1479 1483 1486 1490 1492 1493 1494 1494 1496 1494 1489 1490 1492 1490 1489 1488 1488 1488 1487 1489 1488 1487 1488 1488 1486 1487 1492 1491 1488 1490 1492 1494 1497 1499 1501 1504 1506 1509 1511 1513 1515
1516 1514 1512 1510 1508 1505 1502 1500 1498 1497 1495 1493 1491 1490 1488 1486 1484 1482 1480 1479 1477 1476 1475 1474 1473 1473 1473 1472 1473 1470 1463 1462 1463 1462 1463 1463 1464 1465 1465 1466 1466 1468 1471 1473 1475 1477 1479 1481 1483 1487 1489 1490 1492 1493 1492 1492 1491 1490 1492 1492 1489 1489 1487 1485 1485 1484 1486 1486 1484 1485 1485 1485 1488 1489 1487 1486 1488 1489 1492 1495 1498 1500 1503 1505 1508 1511 1514 1516
1516 1514 1512 1509 1507 1504 1502 1499 1497 1496 1493 1491 1490 1489 1487 1485 1483 1480 1478 1477 1475 1475 1474 1473 1472 1471 1471 1470 1468 1465 1462 1462 1462 1461 1462 1462 1463 1464 1464 1466 1466 1468 1470 1471 1474 1477 1480 1482 1484 1486 1487 1488 1491 1493 1492 1490 1491 1491 1492 1493 1489 1489 1487 1482 1481 1482 1484 1484 1481 1484 1490 1491 1488 1485 1483 1484 1487 1488 1490 1493 1496 1499 1502 1505 1508 1511 1514 1516
1516 1514 1511 1509 1506 1503 1501 1498 1496 1495 1492 1490 1489 1487 1485 1483 1481 1478 1477 1476 1475 1474 1473 1472 1471 1469 1470 1466 1461 1461 1461 1461 1461 1461 1462 1462 1462 1463 1463 1466 1467 1470 1471 1472 1474 1477 1480 1482 1483 1485 1485 1487 1489 1491 1490 1488 1490 1491 1492 1493 1493 1495 1490 1478 1478 1480 1481 1481 1478 1485 1499 1497 1486 1482 1482 1484 1486 1488 1491 1493 1495 1498 1501 1505 1507 1510 1512 1515
1515 1513 1511 1508 1505 1503 1500 1497 1496 1493 1491 1489 1487 1486 1483 1481 1479 1477 1476 1475 1474 1473 1472 1471 1469 1468 1467 1462 1457 1459 1459 1459 1461 1461 1461 1461 1461 1462 1462 1464 1467 1470 1473 1475 1477 1479 1481 1483 1485 1486 1486 1487 1487 1488 1488 1488 1490 1490 1492 1493 1495 1502 1493 1476 1476 1479 1480 1480 1475 1484 1499 1494 1483 1481 1481 1483 1484 1486 1489 1492 1494 1497 1499 1503 1506 1508 1511 1513
1515 1512 1510 1507 1505 1502 1499 1497 1495 1492 1490 1488 1486 1485 1482 1480 1478 1476 1475 1474 1474 1473 1470 1469 1467 1466 1464 1458 1457 1458 1457 1458 1460 1459 1460 1460 1460 1461 1462 1463 1467 1470 1473 1476 1478 1480 1483 1485 1486 1487 1486 1486 1487 1489 1491 1491 1490 1489 1495 1497 1496 1501 1492 1477 1476 1477 1478 1478 1473 1483 1495 1489 1481 1479 1479 1481 1483 1484 1486 1490 1493 1495 1497 1500 1503 1506 1509 1512
1514 1511 1509 1507 1504 1501 1498 1496 1493 1491 1489 1487 1485 1483 1481 1479 1477 1475 1474 1474 1473 1471 1469 1467 1466 1466 1464 1459 1457 1458 1458 1458 1458 1458 1458 1459 1460 1461 1462 1464 1467 1470 1473 1476 1479 1481 1483 1486 1486 1486 1486 1487 1488 1491 1494 1497 1496 1491 1495 1498 1496 1497 1493 1483 1477 1472 1474 1476 1475 1481 1488 1485 1479 1476 1478 1480 1481 1483 1485 1488 1490 1493 1495 1497 1501 1503 1506 1510
1513 1510 1508 1506 1503 1500 1497 1495 1492 1490 1488 1486 1484 1482 1479 1477 1476 1474 1474 1474 1472 1469 1468 1467 1465 1464 1462 1459 1458 1458 1458 1457 1457 1457 1457 1458 1459 1460 1462 1464 1466 1470 1473 1476 1479 1480 1483 1485 1486 1486 1486 1486 1487 1490 1500 1505 1502 1496 1494 1496 1494 1492 1492 1489 1481 1472 1471 1476 1478 1479 1482 1481 1476 1474 1476 1478 1480 1482 1484 1486 1488 1490 1493 1495 1498 1501 1503 1506
1513 1510 1507 1505 1502 1499 1496 1494 1491 1489 1487 1485 1482 1480 1479 1477 1475 1473 1473 1473 1471 1469 1468 1466 1465 1464 1461 1459 1459 1459 1456 1455 1455 1456 1457 1457 1457 1458 1461 1463 1465 1469 1474 1477 1479 1479 1483 1484 1485 1487 1486 1488 1487 1489 1498 1498 1493 1494 1496 1496 1494 1490 1489 1488 1483 1475 1473 1478 1480 1481 1482 1479 1475 1475 1474 1475 1478 1480 1480 1483 1485 1488 1490 1493 1495 1498 1500 1502
1513 1509 1506 1504 1501 1498 1496 1493 1491 1488 1486 1484 1482 1480 1478 1476 1474 1473 1473 1473 1470 1470 1470 1468 1468 1469 1467 1461 1460 1459 1455 1453 1454 1455 1456 1456 1456 1458 1460 1463 1464 1467 1473 1477 1477 1477 1480 1482 1485 1488 1485 1482 1480 1481 1486 1485 1483 1488 1491 1491 1492 1490 1487 1484 1481 1475 1474 1480 1482 1481 1482 1478 1477 1477 1474 1475 1476 1478 1480 1483 1485 1487 1489 1491 1493 1495 1497 1499
1512 1508 1505 1502 1500 1498 1495 1493 1491 1489 1486 1483 1481 1478 1477 1476 1474 1473 1472 1471 1472 1472 1471 1470 1469 1471 1468 1463 1460 1457 1453 1451 1452 1454 1455 1455 1456 1457 1460 1463 1464 1467 1470 1472 1475 1475 1477 1483 1484 1479 1474 1473 1475 1478 1482 1482 1482 1485 1487 1488 1488 1488 1486 1480 1478 1475 1472 1480 1481 1478 1479 1476 1475 1475 1472 1473 1476 1478 1481 1483 1485 1486 1487 1489 1490 1492 1493 1495
1511 1508 1504 1502 1500 1497 1495 1493 1491 1489 1487 1485 1482 1479 1481 1483 1482 1479 1474 1470 1470 1470 1469 1469 1469 1468 1466 1463 1460 1457 1454 1451 1451 1453 1455 1455 1456 1458 1460 1461 1464 1468 1469 1469 1473 1474 1477 1482 1476 1467 1468 1473 1477 1479 1482 1483 1483 1485 1488 1490 1489 1488 1485 1478 1477 1475 1472 1479 1481 1476 1477 1475 1472 1473 1471 1472 1476 1476 1476 1478 1481 1483 1485 1486 1487 1489 1490 1493
1510 1507 1503 1501 1499 1496 1495 1493 1492 1490 1488 1487 1484 1483 1487 1488 1488 1486 1482 1475 1469 1468 1468 1468 1468 1467 1465 1463 1460 1459 1457 1454 1452 1453 1455 1456 1456 1457 1458 1460 1462 1465 1467 1469 1473 1476 1480 1475 1464 1463 1470 1475 1477 1478 1481 1483 1484 1486 1488 1491 1491 1487 1484 1479 1475 1474 1473 1479 1481 1477 1478 1474 1468 1469 1470 1469 1470 1468 1468 1470 1473 1476 1480 1482 1483 1485 1488 1493
1510 1506 1503 1500 1498 1496 1494 1493 1492 1490 1489 1488 1486 1487 1488 1488 1488 1487 1485 1481 1472 1467 1467 1467 1467 1466 1464 1462 1460 1459 1458 1456 1455 1454 1455 1456 1456 1456 1457 1458 1460 1463 1465 1466 1468 1476 1477 1466 1459 1465 1472 1474 1477 1478 1479 1483 1484 1485 1487 1491 1491 1485 1485 1483 1477 1475 1474 1476 1478 1478 1478 1474 1467 1468 1469 1466 1464 1464 1466 1467 1469 1472 1473 1474 1478 1482 1486 1489
1509 1505 1502 1499 1497 1495 1494 1493 1492 1490 1489 1488 1488 1488 1488 1488 1487 1485 1484 1482 1476 1469 1467 1468 1467 1466 1464 1462 1461 1459 1458 1458 1456 1454 1454 1454 1454 1455 1455 1456 1459 1461 1462 1463 1465 1469 1467 1459 1458 1467 1471 1472 1477 1478 1478 1483 1485 1483 1483 1486 1486 1482 1483 1483 1480 1477 1475 1475 1475 1477 1484 1478 1469 1471 1470 1466 1466 1467 1468 1471 1473 1474 1473 1476 1480 1482 1485 1486
1508 1504 1501 1498 1496 1494 1493 1493 1491 1491 1490 1489 1489 1488 1488 1487 1485 1484 1483 1482 1478 1470 1467 1468 1467 1467 1465 1463 1462 1460 1458 1457 1456 1455 1454 1453 1454 1453 1452 1453 1456 1459 1460 1462 1466 1467 1463 1459 1459 1465 1468 1471 1474 1475 1476 1479 1484 1484 1479 1477 1479 1480 1481 1482 1482 1481 1484 1486 1477 1477 1494 1487 1468 1469 1469 1465 1469 1469 1468 1471 1471 1471 1474 1478 1479 1480 1482 1484
1507 1504 1500 1497 1495 1494 1493 1492 1491 1491 1489 1489 1488 1487 1487 1486 1484 1483 1483 1485 1480 1470 1468 1469 1468 1468 1466 1463 1461 1459 1459 1457 1454 1455 1453 1452 1451 1451 1451 1451 1451 1455 1458 1461 1465 1464 1460 1459 1460 1462 1465 1468 1472 1473 1472 1474 1483 1485 1473 1470 1475 1478 1480 1483 1483 1486 1492 1492 1478 1475 1493 1493 1474 1467 1465 1465 1467 1466 1466 1467 1465 1467 1472 1473 1474 1476 1479 1481
1506 1503 1500 1497 1495 1493 1492 1491 1491 1490 1488 1488 1487 1486 1486 1483 1483 1482 1483 1488 1483 1472 1470 1472 1470 1470 1468 1465 1461 1459 1464 1461 1453 1453 1451 1450 1449 1448 1452 1450 1449 1452 1452 1458 1466 1460 1454 1458 1461 1461 1463 1467 1470 1470 1467 1469 1479 1478 1466 1468 1475 1476 1480 1482 1484 1488 1488 1486 1481 1476 1485 1494 1485 1468 1461 1464 1466 1466 1466 1464 1462 1464 1467 1468 1469 1472 1474 1477
1506 1502 1499 1497 1495 1493 1492 1491 1491 1489 1489 1488 1486 1485 1484 1481 1482 1481 1484 1491 1484 1473 1475 1475 1471 1471 1469 1467 1464 1462 1466 1463 1457 1454 1449 1448 1447 1446 1449 1449 1449 1450 1447 1455 1464 1455 1449 1455 1458 1459 1463 1465 1462 1461 1461 1465 1471 1469 1463 1466 1471 1474 1477 1478 1483 1487 1485 1488 1490 1480 1480 1494 1490 1467 1459 1464 1465 1466 1465 1462 1461 1461 1462 1463 1465 1468 1469 1472
1505 1502 1499 1496 1495 1493 1492 1491 1490 1489 1488 1487 1485 1484 1482 1480 1480 1481 1487 1492 1482 1475 1479 1476 1472 1472 1470 1467 1466 1464 1465 1463 1461 1457 1450 1448 1447 1445 1448 1448 1448 1450 1447 1449 1455 1451 1446 1449 1451 1455 1459 1459 1455 1455 1457 1462 1465 1462 1462 1465 1467 1471 1474 1477 1483 1484 1487 1494 1492 1481 1478 1492 1491 1468 1460 1466 1463 1460 1460 1459 1458 1457 1458 1460 1461 1463 1466 1470
1505 1501 1498 1496 1494 1493 1492 1491 1489 1488 1487 1485 1484 1482 1480 1480 1481 1486 1494 1491 1481 1480 1481 1477 1475 1475 1471 1469 1469 1467 1465 1464 1462 1457 1451 1449 1447 1445 1446 1447 1447 1449 1448 1447 1448 1448 1445 1444 1447 1448 1450 1452 1452 1454 1455 1457 1460 1460 1463 1468 1470 1473 1472 1476 1479 1481 1493 1494 1482 1475 1474 1485 1490 1471 1458 1460 1454 1450 1455 1456 1454 1453 1455 1457 1459 1461 1464 1467
1504 1501 1498 1496 1494 1493 1491 1490 1489 1488 1486 1485 1483 1480 1480 1481 1483 1492 1495 1487 1483 1484 1481 1479 1479 1476 1475 1475 1474 1471 1468 1466 1462 1459 1456 1454 1451 1450 1451 1454 1455 1452 1450 1450 1449 1447 1446 1446 1445 1443 1444 1447 1451 1454 1454 1454 1456 1460 1465 1470 1477 1480 1478 1482 1484 1486 1498 1490 1472 1469 1470 1477 1485 1469 1452 1449 1443 1442 1447 1449 1448 1449 1450 1451 1454 1457 1460 1462
1503 1500 1497 1495 1494 1493 1491 1490 1488 1487 1485 1483 1481 1479 1480 1484 1489 1495 1492 1485 1487 1488 1484 1484 1482 1479 1479 1478 1478 1476 1472 1470 1466 1464 1465 1463 1462 1465 1467 1471 1471 1464 1457 1457 1454 1449 1447 1446 1443 1442 1441 1443 1450 1455 1457 1457 1457 1463 1467 1472 1486 1493 1492 1496 1496 1492 1492 1482 1467 1465 1469 1474 1471 1456 1447 1443 1438 1438 1439 1439 1440 1441 1442 1444 1447 1451 1454 1457
1502 1498 1496 1495 1493 1492 1491 1489 1488 1486 1484 1481 1479 1478 1480 1487 1494 1497 1493 1490 1491 1489 1486 1486 1484 1482 1482 1480 1481 1479 1475 1474 1471 1469 1469 1468 1469 1473 1475 1475 1474 1471 1467 1465 1462 1456 1451 1446 1442 1443 1441 1439 1444 1452 1459 1461 1460 1464 1468 1473 1486 1496 1501 1505 1501 1493 1488 1478 1464 1461 1469 1473 1461 1447 1440 1436 1433 1432 1432 1433 1434 1433 1435 1438 1441 1446 1450 1454
1501 1497 1495 1493 1492 1491 1490 1489 1487 1485 1483 1481 1478 1477 1483 1492 1496 1495 1494 1493 1491 1488 1487 1487 1485 1484 1484 1484 1484 1481 1479 1478 1474 1473 1472 1471 1473 1476 1476 1475 1473 1473 1472 1471 1471 1467 1464 1457 1445 1443 1444 1441 1440 1444 1450 1454 1457 1460 1459 1466 1476 1481 1489 1497 1495 1492 1487 1477 1467 1464 1469 1467 1454 1441 1431 1426 1425 1425 1427 1429 1429 1430 1431 1434 1439 1444 1449 1453
1500 1496 1494 1492 1492 1491 1490 1489 1487 1485 1484 1481 1479 1482 1489 1497 1497 1494 1494 1492 1490 1489 1488 1487 1486 1487 1487 1487 1485 1482 1482 1481 1477 1477 1477 1477 1480 1481 1481 1480 1476 1475 1475 1475 1477 1476 1474 1464 1448 1444 1446 1444 1441 1439 1439 1447 1456 1455 1452 1462 1468 1464 1467 1478 1480 1476 1476 1476 1468 1462 1461 1451 1440 1432 1424 1422 1422 1420 1423 1425 1425 1427 1427 1432 1438 1441 1444 1447
1498 1495 1493 1492 1491 1490 1489 1488 1487 1486 1485 1481 1483 1489 1494 1495 1495 1493 1492 1490 1490 1490 1489 1488 1488 1490 1492 1490 1487 1484 1483 1482 1480 1480 1481 1482 1485 1484 1484 1484 1481 1478 1479 1481 1481 1482 1481 1467 1451 1448 1446 1441 1444 1442 1436 1442 1450 1453 1455 1458 1455 1450 1455 1470 1476 1469 1471 1478 1466 1452 1451 1444 1437 1433 1424 1423 1425 1421 1421 1423 1422 1422 1424 1430 1434 1434 1438 1441
1497 1494 1493 1491 1490 1488 1487 1486 1486 1486 1485 1483 1487 1493 1493 1493 1493 1492 1490 1489 1489 1489 1490 1492 1491 1491 1494 1493 1491 1488 1484 1484 1483 1483 1484 1485 1488 1488 1487 1486 1484 1481 1481 1483 1481 1481 1484 1474 1456 1453 1449 1441 1442 1442 1435 1433 1438 1448 1455 1450 1446 1451 1454 1462 1475 1475 1476 1481 1466 1449 1450 1447 1444 1440 1428 1425 1429 1425 1422 1421 1420 1419 1422 1427 1428 1428 1432 1434
1496 1493 1492 1491 1488 1486 1483 1483 1484 1485 1485 1485 1489 1492 1492 1492 1492 1491 1490 1488 1488 1488 1490 1494 1492 1491 1493 1494 1493 1489 1487 1488 1487 1486 1487 1487 1490 1491 1489 1488 1486 1482 1480 1481 1480 1477 1481 1479 1462 1452 1453 1447 1441 1442 1440 1433 1431 1437 1442 1439 1444 1460 1462 1460 1471 1477 1479 1482 1469 1454 1451 1445 1441 1438 1429 1427 1428 1424 1422 1420 1419 1419 1420 1422 1423 1424 1427 1430
1496 1493 1492 1491 1487 1484 1482 1481 1483 1483 1484 1488 1492 1493 1492 1493 1491 1490 1490 1488 1487 1488 1490 1492 1492 1491 1491 1493 1493 1490 1489 1491 1490 1489 1490 1491 1492 1491 1489 1489 1488 1484 1480 1478 1480 1477 1477 1481 1470 1454 1453 1453 1445 1444 1444 1439 1433 1433 1435 1436 1439 1448 1454 1456 1459 1462 1469 1477 1471 1461 1454 1442 1432 1427 1423 1423 1422 1419 1420 1420 1418 1417 1415 1416 1418 1420 1423 1427
1496 1492 1492 1490 1486 1484 1482 1481 1482 1484 1487 1491 1494 1494 1492 1493 1492 1490 1490 1488 1487 1488 1489 1490 1491 1491 1491 1491 1491 1491 1490 1492 1491 1491 1492 1492 1493 1491 1489 1489 1488 1485 1481 1478 1478 1477 1475 1481 1479 1462 1456 1455 1449 1445 1446 1445 1444 1442 1442 1443 1441 1440 1443 1448 1450 1447 1454 1466 1467 1465 1458 1438 1421 1417 1415 1414 1414 1413 1413 1414 1414 1413 1411 1412 1414 1416 1419 1422
1497 1494 1492 1489 1486 1485 1483 1483 1485 1488 1491 1494 1495 1495 1494 1493 1492 1491 1490 1489 1488 1488 1489 1489 1490 1491 1492 1491 1491 1491 1491 1493 1493 1494 1494 1493 1494 1493 1490 1489 1488 1485 1482 1480 1479 1479 1478 1481 1483 1475 1469 1465 1455 1447 1447 1450 1452 1453 1450 1445 1441 1440 1443 1453 1458 1446 1442 1451 1454 1458 1457 1435 1413 1410 1409 1406 1406 1405 1405 1407 1408 1408 1407 1408 1409 1412 1415 1417
1498 1497 1494 1490 1488 1486 1484 1487 1491 1493 1494 1496 1497 1496 1495 1493 1493 1493 1491 1490 1490 1489 1489 1489 1490 1491 1492 1492 1492 1492 1492 1494 1495 1495 1495 1494 1493 1493 1490 1488 1487 1485 1483 1483 1481 1479 1478 1479 1482 1480 1474 1467 1454 1445 1447 1449 1449 1451 1452 1446 1442 1440 1440 1450 1457 1447 1441 1444 1442 1447 1451 1431 1408 1405 1405 1402 1401 1400 1399 1401 1403 1403 1404 1404 1406 1408 1411 1413
1499 1499 1496 1492 1489 1487 1486 1491 1496 1497 1497 1497 1497 1496 1496 1495 1495 1494 1493 1492 1492 1492 1491 1491 1491 1492 1493 1492 1492 1492 1492 1494 1495 1494 1495 1494 1491 1490 1490 1488 1487 1485 1483 1485 1482 1479 1477 1478 1481 1479 1469 1457 1447 1443 1444 1445 1446 1451 1453 1453 1453 1450 1447 1448 1446 1440 1440 1441 1439 1449 1449 1426 1405 1403 1403 1401 1400 1399 1398 1399 1399 1400 1401 1402 1404 1405 1408 1410
1500 1500 1497 1495 1491 1487 1491 1498 1501 1501 1501 1499 1497 1497 1496 1496 1496 1496 1496 1495 1494 1494 1494 1493 1493 1493 1493 1493 1492 1493 1493 1493 1495 1493 1493 1494 1492 1490 1489 1488 1487 1485 1484 1485 1484 1482 1482 1481 1482 1482 1473 1460 1449 1446 1448 1449 1453 1460 1462 1460 1458 1455 1455 1450 1439 1436 1439 1433 1433 1445 1442 1421 1406 1404 1402 1400 1400 1399 1398 1398 1399 1399 1399 1400 1402 1403 1405 1407
1501 1500 1499 1498 1494 1491 1496 1504 1505 1504 1505 1503 1500 1499 1498 1498 1498 1498 1497 1497 1496 1495 1495 1495 1494 1494 1494 1494 1493 1493 1492 1493 1494 1493 1492 1493 1491 1489 1489 1488 1487 1486 1485 1484 1483 1483 1484 1481 1481 1485 1484 1474 1463 1463 1470 1473 1471 1467 1463 1460 1459 1459 1459 1453 1446 1446 1443 1431 1426 1430 1427 1415 1406 1402 1401 1400 1401 1399 1397 1397 1398 1398 1398 1399 1400 1401 1403 1405
1504 1503 1502 1501 1498 1497 1501 1505 1505 1505 1507 1507 1504 1502 1502 1502 1500 1498 1498 1498 1497 1496 1496 1496 1495 1495 1495 1495 1495 1495 1493 1492 1493 1493 1492 1492 1491 1488 1488 1488 1487 1486 1485 1484 1483 1483 1484 1482 1480 1483 1484 1480 1475 1476 1480 1482 1479 1473 1466 1461 1459 1459 1459 1458 1460 1455 1441 1432 1427 1419 1415 1414 1407 1402 1401 1399 1399 1399 1397 1397 1398 1397 1396 1397 1398 1399 1400 1401
1508 1509 1509 1507 1503 1502 1504 1505 1506 1507 1508 1509 1507 1504 1504 1504 1502 1500 1499 1499 1499 1498 1497 1496 1496 1497 1498 1498 1498 1497 1494 1493 1493 1492 1492 1491 1490 1488 1488 1487 1486 1486 1485 1484 1484 1484 1485 1484 1480 1480 1480 1479 1478 1478 1476 1477 1478 1476 1470 1464 1458 1456 1457 1458 1460 1452 1439 1435 1428 1414 1410 1412 1404 1400 1401 1399 1397 1397 1394 1393 1394 1392 1392 1393 1393 1394 1396 1397
1509 1511 1512 1512 1510 1509 1509 1507 1507 1508 1507 1508 1507 1504 1505 1506 1505 1504 1502 1500 1500 1498 1498 1498 1498 1499 1500 1499 1499 1498 1495 1495 1494 1493 1492 1491 1490 1489 1488 1486 1486 1485 1485 1485 1484 1484 1487 1486 1480 1479 1479 1476 1475 1475 1474 1475 1475 1472 1469 1464 1457 1454 1454 1454 1451 1445 1441 1439 1427 1413 1409 1405 1396 1395 1397 1394 1394 1393 1389 1388 1388 1388 1388 1388 1388 1389 1390 1392
1511 1512 1512 1513 1513 1513 1512 1510 1509 1509 1508 1506 1506 1505 1506 1507 1506 1506 1504 1502 1501 1500 1499 1501 1500 1500 1499 1499 1499 1499 1497 1497 1496 1494 1493 1492 1491 1491 1490 1487 1485 1485 1485 1485 1484 1484 1487 1486 1480 1478 1478 1475 1474 1473 1471 1471 1471 1467 1464 1460 1455 1451 1448 1445 1441 1437 1436 1435 1427 1417 1410 1399 1390 1392 1393 1391 1390 1389 1386 1385 1384 1384 1383 1382 1383 1383 1383 1385
1512 1513 1513 1513 1513 1512 1512 1511 1510 1510 1508 1507 1507 1507 1507 1507 1507 1506 1504 1503 1504 1502 1501 1502 1501 1499 1498 1498 1498 1498 1496 1495 1496 1494 1492 1492 1492 1491 1490 1487 1485 1486 1486 1486 1485 1485 1488 1486 1478 1476 1478 1474 1470 1469 1468 1469 1469 1466 1461 1455 1452 1449 1442 1436 1433 1429 1429 1429 1425 1421 1415 1400 1390 1391 1392 1390 1388 1386 1385 1384 1382 1380 1379 1378 1377 1377 1377 1379
1512 1513 1513 1514 1514 1512 1511 1511 1510 1510 1510 1509 1509 1509 1508 1508 1508 1507 1504 1502 1503 1502 1501 1501 1500 1499 1497 1496 1496 1495 1493 1493 1493 1491 1490 1490 1489 1488 1488 1486 1485 1486 1486 1486 1486 1485 1488 1487 1480 1478 1480 1473 1467 1468 1468 1466 1465 1462 1458 1453 1448 1446 1442 1436 1431 1428 1428 1425 1418 1415 1412 1402 1395 1395 1393 1388 1386 1386 1385 1383 1381 1379 1378 1376 1374 1373 1373 1375
1512 1513 1513 1514 1514 1512 1512 1511 1511 1511 1511 1510 1509 1510 1509 1508 1507 1507 1505 1502 1500 1501 1500 1500 1499 1499 1498 1496 1494 1492 1491 1490 1489 1487 1486 1486 1485 1484 1485 1484 1483 1484 1484 1485 1486 1485 1487 1489 1486 1484 1481 1473 1468 1468 1467 1466 1463 1455 1448 1447 1446 1444 1442 1438 1433 1429 1428 1425 1419 1413 1408 1404 1402 1401 1397 1391 1387 1386 1384 1382 1381 1378 1377 1375 1373 1371 1371 1372